Location: Peterborough
(44.3091°N, 78.3197°W)
Time: 16:48:35
(UTC-04:00)

Transit 2A - Pass Details

Date: 24 March 2023
Orbit: 591 x 964 km, 66.7° (Epoch: 04 June)

Event Time Altitude Azimuth Distance (km) Brightness Sun altitude
Rises 06:18:29 0° 203° (SSW) 3,162 8.9 -9.9°
Reaches altitude 10° 06:20:44 10° 201° (SSW) 2,298 8.2 -9.5°
Maximum altitude 06:26:01 71° 118° (ESE) 874 6.5 -8.6°
Drops below altitude 10° 06:31:55 10° 35° (NE) 2,561 9.4 -7.5°
Sets 06:34:33 0° 34° (NE) 3,552 10.1 -7.1°
